Llano, TX

1:50 AM CDT on May 25, 2017 (GMT -0500)
Llano

Weather History for KAQO - December, 2013

Change the Weather History Date:

Friday, December 27, 2013

  Actual Average (KBMQ) Record (KBMQ)
Temperature  
Mean Temperature 48 °F -  
Max Temperature 57 °F 56 °F 82 °F (2005)
Min Temperature 39 °F 35 °F 28 °F (2000)
Degree Days  
Heating Degree Days 17    
Moisture  
Dew Point 36 °F    
Average Humidity 66    
Maximum Humidity 93    
Minimum Humidity 36    
Precipitation  
Precipitation 0.00 in - - ()
Sea Level Pressure  
Sea Level Pressure 30.40 in    
Wind  
Wind Speed 0 mph (East)    
Max Wind Speed 6 mph    
Max Gust Speed -    
Visibility 10 miles    
Events      
Averages and records for this station are not official NWS values.
T = Trace of Precipitation, MM = Missing Value Source: NWS Daily Summary

Daily Weather History Graph

Daily Weather History Graph

Search for Another Location

Airport or City:

Trip Planner

Search our weather history database for the weather conditions in past years. The results will help you decide how hot, cold, wet, or windy it might be!

Date:

Astronomy

Dec. 27, 2013 Rise Set
Actual Time 7:30 AM CST 5:40 PM CST
Civil Twilight 7:04 AM CST 6:07 PM CST
Nautical Twilight 6:34 AM CST 6:37 PM CST
Astronomical Twilight 6:04 AM CST 7:07 PM CST
Moon 2:17 AM CST (12/27) 1:41 PM CST (12/27)
Length of Visible Light 11h 03m
Length of Day
10h 10m
Waning Crescent, 28% of the Moon is Illuminated
Dec 27
Waning Crescent
Jan 1
New
Jan 7
First Quarter
Jan 15
Full
Jan 23
Last Quarter

Hourly Weather History & Observations

Time (CST) Temp. Dew Point Humidity Pressure Visibility Wind Dir Wind Speed Gust Speed Precip Events Conditions
12:15 AM 39.2 °F 35.6 °F 87% 30.41 in 10.0 mi Calm Calm - N/A   Clear
12:35 AM 39.2 °F 35.6 °F 87% 30.40 in 10.0 mi Calm Calm - N/A   Clear
12:55 AM 39.2 °F 37.4 °F 93% 30.40 in 10.0 mi Calm Calm - N/A   Mostly Cloudy
1:15 AM 39.2 °F 37.4 °F 93% 30.40 in 10.0 mi Calm Calm - N/A   Mostly Cloudy
1:35 AM 39.2 °F 37.4 °F 93% 30.40 in 10.0 mi Calm Calm - N/A   Partly Cloudy
1:55 AM 39.2 °F 37.4 °F 93% 30.40 in 10.0 mi Calm Calm - N/A   Scattered Clouds
2:15 AM 41.0 °F 37.4 °F 87% 30.40 in 10.0 mi Calm Calm - N/A   Mostly Cloudy
2:35 AM 41.0 °F 37.4 °F 87% 30.39 in 10.0 mi Calm Calm - N/A   Mostly Cloudy
2:55 AM 42.8 °F 37.4 °F 81% 30.40 in 10.0 mi Calm Calm - N/A   Overcast
3:15 AM 42.8 °F 37.4 °F 81% 30.40 in 10.0 mi Calm Calm - N/A   Overcast
3:35 AM 42.8 °F 37.4 °F 81% 30.40 in 10.0 mi Calm Calm - N/A   Overcast
3:55 AM 42.8 °F 37.4 °F 81% 30.40 in 10.0 mi Calm Calm - N/A   Mostly Cloudy
4:15 AM 42.8 °F 37.4 °F 81% 30.40 in 10.0 mi Calm Calm - N/A   Mostly Cloudy
4:35 AM 42.8 °F 39.2 °F 87% 30.41 in 10.0 mi Calm Calm - N/A   Overcast
4:55 AM 42.8 °F 39.2 °F 87% 30.41 in 10.0 mi Calm Calm - N/A   Overcast
5:15 AM 42.8 °F 39.2 °F 87% 30.41 in 10.0 mi Calm Calm - N/A   Overcast
5:35 AM 42.8 °F 39.2 °F 87% 30.41 in 10.0 mi Calm Calm - N/A   Overcast
5:55 AM 42.8 °F 39.2 °F 87% 30.41 in 10.0 mi Calm Calm - N/A   Overcast
6:15 AM 44.6 °F 39.2 °F 81% 30.42 in 10.0 mi Calm Calm - N/A   Overcast
6:35 AM 44.6 °F 39.2 °F 81% 30.42 in 10.0 mi Calm Calm - N/A   Mostly Cloudy
6:55 AM 42.8 °F 39.2 °F 87% 30.42 in 10.0 mi Calm Calm - N/A   Mostly Cloudy
7:15 AM 42.8 °F 39.2 °F 87% 30.42 in 10.0 mi Calm Calm - N/A   Mostly Cloudy
7:35 AM 42.8 °F 39.2 °F 87% 30.43 in 10.0 mi Calm Calm - N/A   Mostly Cloudy
7:55 AM 42.8 °F 39.2 °F 87% 30.43 in 10.0 mi Calm Calm - N/A   Mostly Cloudy
8:15 AM 42.8 °F 39.2 °F 87% 30.44 in 10.0 mi Calm Calm - N/A   Mostly Cloudy
8:35 AM 44.6 °F 39.2 °F 81% 30.45 in 10.0 mi Calm Calm - N/A   Mostly Cloudy
8:55 AM 44.6 °F 39.2 °F 81% 30.46 in 10.0 mi Calm Calm - N/A   Scattered Clouds
9:15 AM 46.4 °F 39.2 °F 76% 30.46 in 10.0 mi Calm Calm - N/A   Clear
9:35 AM 46.4 °F 39.2 °F 76% 30.47 in 10.0 mi Calm Calm - N/A   Partly Cloudy
9:55 AM 48.2 °F 39.2 °F 71% 30.47 in 10.0 mi Calm Calm - N/A   Mostly Cloudy
10:15 AM 48.2 °F 39.2 °F 71% 30.47 in 10.0 mi Calm Calm - N/A   Mostly Cloudy
10:35 AM 50.0 °F 39.2 °F 66% 30.48 in 10.0 mi Calm Calm - N/A   Mostly Cloudy
10:55 AM 51.8 °F 39.2 °F 62% 30.48 in 10.0 mi Calm Calm - N/A   Mostly Cloudy
11:15 AM 51.8 °F 39.2 °F 62% 30.47 in 10.0 mi Calm Calm - N/A   Mostly Cloudy
11:35 AM 51.8 °F 39.2 °F 62% 30.46 in 10.0 mi Calm Calm - N/A   Partly Cloudy
11:55 AM 53.6 °F 39.2 °F 58% 30.45 in 10.0 mi Calm Calm - N/A   Partly Cloudy
12:15 PM 55.4 °F 37.4 °F 51% 30.43 in 10.0 mi SE 3.5 mph - N/A   Partly Cloudy
12:35 PM 55.4 °F 35.6 °F 47% 30.42 in 10.0 mi North 3.5 mph - N/A   Scattered Clouds
12:55 PM 55.4 °F 35.6 °F 47% 30.41 in 10.0 mi ESE 3.5 mph - N/A   Scattered Clouds
1:15 PM 55.4 °F 37.4 °F 51% 30.40 in 10.0 mi Calm Calm - N/A   Scattered Clouds
1:35 PM 55.4 °F 35.6 °F 47% 30.40 in 10.0 mi Calm Calm - N/A   Mostly Cloudy
1:55 PM 55.4 °F 35.6 °F 47% 30.39 in 10.0 mi Calm Calm - N/A   Mostly Cloudy
2:15 PM 55.4 °F 35.6 °F 47% 30.39 in 10.0 mi Calm Calm - N/A   Mostly Cloudy
2:35 PM 57.2 °F 35.6 °F 44% 30.38 in 10.0 mi Calm Calm - N/A   Scattered Clouds
2:55 PM 57.2 °F 32.0 °F 38% 30.38 in 10.0 mi ESE 3.5 mph - N/A   Scattered Clouds
3:15 PM 57.2 °F 32.0 °F 38% 30.38 in 9.0 mi East 3.5 mph - N/A   Mostly Cloudy
3:35 PM 57.2 °F 32.0 °F 38% 30.37 in 10.0 mi ESE 4.6 mph - N/A   Mostly Cloudy
3:55 PM 57.2 °F 30.2 °F 36% 30.37 in 10.0 mi East 5.8 mph - N/A   Partly Cloudy
4:15 PM 55.4 °F 30.2 °F 38% 30.37 in 10.0 mi Calm Calm - N/A   Mostly Cloudy
4:35 PM 57.2 °F 32.0 °F 38% 30.37 in 10.0 mi East 3.5 mph - N/A   Mostly Cloudy
4:55 PM 57.2 °F 32.0 °F 38% 30.38 in 10.0 mi Calm Calm - N/A   Mostly Cloudy
5:15 PM 55.4 °F 32.0 °F 41% 30.37 in 10.0 mi Calm Calm - N/A   Overcast
5:35 PM 55.4 °F 32.0 °F 41% 30.37 in 10.0 mi Calm Calm - N/A   Overcast
5:55 PM 55.4 °F 32.0 °F 41% 30.37 in 10.0 mi Calm Calm - N/A   Overcast
6:15 PM 53.6 °F 32.0 °F 44% 30.37 in 10.0 mi Calm Calm - N/A   Overcast
6:35 PM 53.6 °F 35.6 °F 51% 30.38 in 10.0 mi Calm Calm - N/A   Overcast
6:55 PM 53.6 °F 35.6 °F 51% 30.38 in 10.0 mi Calm Calm - N/A   Overcast
7:15 PM 51.8 °F 35.6 °F 54% 30.38 in 10.0 mi Calm Calm - N/A   Overcast
7:35 PM 51.8 °F 35.6 °F 54% 30.38 in 10.0 mi Calm Calm - N/A   Overcast
7:55 PM 51.8 °F 37.4 °F 58% 30.38 in 10.0 mi Calm Calm - N/A   Overcast
8:15 PM 51.8 °F 35.6 °F 54% 30.38 in 10.0 mi Calm Calm - N/A   Overcast
8:35 PM 51.8 °F 35.6 °F 54% 30.39 in 10.0 mi Calm Calm - N/A   Overcast
8:55 PM 51.8 °F 33.8 °F 50% 30.39 in 10.0 mi Calm Calm - N/A   Overcast
9:15 PM 50.0 °F 35.6 °F 58% 30.38 in 10.0 mi Calm Calm - N/A   Overcast
9:35 PM 48.2 °F 35.6 °F 62% 30.38 in 10.0 mi Calm Calm - N/A   Overcast
9:55 PM 48.2 °F 35.6 °F 62% 30.38 in 10.0 mi Calm Calm - N/A   Mostly Cloudy
10:15 PM 48.2 °F 35.6 °F 62% 30.38 in 10.0 mi Calm Calm - N/A   Mostly Cloudy
10:35 PM 46.4 °F 35.6 °F 66% 30.38 in 10.0 mi Calm Calm - N/A   Overcast
10:55 PM 48.2 °F 35.6 °F 62% 30.37 in 10.0 mi Calm Calm - N/A   Overcast
11:15 PM 46.4 °F 35.6 °F 66% 30.37 in 10.0 mi Calm Calm - N/A   Mostly Cloudy
11:35 PM 44.6 °F 35.6 °F 71% 30.37 in 10.0 mi Calm Calm - N/A   Partly Cloudy
11:55 PM 44.6 °F 35.6 °F 71% 30.35 in 10.0 mi Calm Calm - N/A   Mostly Cloudy